Content
SEND FEEDBACK

Daily
Averages
Monthly
Summary
United Kingdom

LONDON, ENGLAND


Home > Europe > United Kingdom > England
Elevation: 203 feet     Latitude: 51 09N     Longitude: 000 11W

WEATHER
 
SELECT A DAY
Number of Records: 294,581;   Date Range: 7/1/96 - 9/19/14
 
SHARE

PRINT THIS DATA

[ ← Previous Day ]
WEATHER ALMANAC - JULY 31, 2013
[ Next Day → ]
[ °C ]   °F
Weather ElementAverageHighLow
Temperature65.7 °F71.6 °F (1:50 pm)59 °F (5:20 am)
Dewpoint61.1 °F64.4 °F (3:20 pm)57.2 °F (5:20 am)
Humidity85.7 %94 % (12:50 am)73 % (1:50 pm)
Barometer30.00 in30.04 in (10:20 am)29.98 in (12:50 am)
Wind Speed7.7 mph15 mph (2:20 pm)
Weather ElementAverage
Visibility5.8 mi
Wind DirectionSSW (196.2 °)

Weather ElementTotal
Precipitation---
Cooling Degree Days0.3 (Base 65)
Growing Degree Days15.3 (Base 50)
Averaged from 47 records on July 31, 2013
WEATHER CONDITIONS BREAKOUT
WIND DIRECTION BREAKOUT
WEATHER BY HOUR - JULY 31, 2013
[ °C ]   °F
Local TimeTemperatureDewpointHumidityBarometerVisibilityWind DirectionWind SpeedGust SpeedPrecipitationEventsConditions
12:50 AM62.6 °F60.8 °F94 %29.98 in5.6 miSW (220°)6.9 mphPartly Cloudy
1:20 AM62.6 °F60.8 °F94 %29.98 in5.0 miSW (220°)4.6 mph
1:50 AM62.6 °F60.8 °F94 %29.98 in5.6 miSW (220°)5.8 mph
2:20 AM62.6 °F59.0 °F88 %29.98 inSW (230°)5.8 mphClear
2:50 AM62.6 °F59.0 °F88 %30.01 inSW (220°)6.9 mphClear
3:20 AM62.6 °F59.0 °F88 %30.01 inSSW (210°)5.8 mphClear
3:50 AM60.8 °F59.0 °F94 %30.01 inSSW (210°)6.9 mphClear
4:20 AM60.8 °F59.0 °F94 %30.01 in5.0 miSSW (210°)5.8 mphPartly Cloudy
4:50 AM60.8 °F59.0 °F94 %30.01 in5.0 miSW (230°)3.5 mphPartly Cloudy
5:20 AM59.0 °F57.2 °F94 %30.01 in4.3 miWSW (240°)3.5 mphPartly Cloudy
5:50 AM60.8 °F59.0 °F94 %30.01 in3.7 miSSW (210°)3.5 mph
6:20 AM60.8 °F59.0 °F94 %30.01 in5.6 miSW (230°)4.6 mphPartly Cloudy
6:50 AM60.8 °F59.0 °F94 %30.01 in4.3 miSSW (210°)6.9 mphLight Drizzle
7:20 AM62.6 °F60.8 °F94 %30.01 in3.1 miSSW (200°)5.8 mphRainRain
7:50 AM62.6 °F60.8 °F94 %30.01 in5.6 miSSW (200°)5.8 mphMostly Cloudy
8:20 AM62.6 °F60.8 °F94 %30.01 in6.2 miSouth (180°)6.9 mphMostly Cloudy
8:50 AM62.6 °F60.8 °F94 %30.01 in6.2 miSSW (200°)6.9 mphMostly Cloudy
9:20 AM62.6 °F60.8 °F94 %30.01 in6.2 miSSW (200°)9.2 mphMostly Cloudy
9:50 AM64.4 °F62.6 °F94 %30.01 in4.3 miSSW (200°)9.2 mphMostly Cloudy
10:20 AM64.4 °F62.6 °F94 %30.04 in6.2 miSW (220°)6.9 mphMostly Cloudy
10:50 AM64.4 °F62.6 °F94 %30.04 in6.2 miSSW (210°)10.4 mphMostly Cloudy
11:20 AM66.2 °F62.6 °F88 %30.04 in5.6 miSW (220°)12.7 mphMostly Cloudy
11:50 AM66.2 °F62.6 °F88 %30.04 in6.2 miSW (220°)11.5 mphMostly Cloudy
12:20 PM68.0 °F62.6 °F83 %30.04 in6.2 miSW (220°)12.7 mphMostly Cloudy
12:50 PM69.8 °F62.6 °F78 %30.01 in6.2 miSW (220°)13.8 mphMostly Cloudy
1:20 PM69.8 °F62.6 °F78 %30.01 in6.2 miSW (220°)13.8 mphMostly Cloudy
1:50 PM71.6 °F62.6 °F73 %30.01 in6.2 miSW (220°)13.8 mphMostly Cloudy
2:20 PM71.6 °F62.6 °F73 %30.01 in6.2 miSW (230°)15.0 mphMostly Cloudy
2:50 PM71.6 °F62.6 °F73 %30.01 in6.2 miSW (220°)11.5 mphScattered Clouds
3:20 PM71.6 °F64.4 °F78 %30.01 in6.2 miSW (220°)10.4 mphScattered Clouds
3:50 PM71.6 °F62.6 °F73 %30.01 in6.2 miSSW (210°)11.5 mphMostly Cloudy
4:20 PM69.8 °F62.6 °F78 %30.01 in6.2 miSW (220°)10.4 mphMostly Cloudy
4:50 PM69.8 °F62.6 °F78 %30.01 in6.2 miSSW (210°)9.2 mphScattered Clouds
5:20 PM69.8 °F62.6 °F78 %30.01 in6.2 miSW (220°)10.4 mphScattered Clouds
5:50 PM69.8 °F62.6 °F78 %29.98 in6.2 miSW (230°)9.2 mphMostly Cloudy
6:20 PM68.0 °F62.6 °F83 %29.98 in6.2 miSSW (210°)8.1 mphMostly Cloudy
6:50 PM68.0 °F62.6 °F83 %29.98 in6.2 miSSW (210°)6.9 mphScattered Clouds
7:20 PM68.0 °F60.8 °F78 %29.98 in6.2 miSSW (200°)8.1 mphMostly Cloudy
7:50 PM68.0 °F60.8 °F78 %29.98 in6.2 miSSW (200°)5.8 mphMostly Cloudy
8:20 PM68.0 °F60.8 °F78 %29.98 in6.2 miSSW (210°)6.9 mphMostly Cloudy
8:50 PM68.0 °F60.8 °F78 %29.98 in6.2 miSSW (210°)6.9 mphMostly Cloudy
9:20 PM68.0 °F60.8 °F78 %29.98 in6.2 miSSW (210°)4.6 mphMostly Cloudy
9:50 PM66.2 °F60.8 °F83 %29.98 in6.2 miSW (220°)4.6 mphMostly Cloudy
10:20 PM66.2 °F60.8 °F83 %29.98 in6.2 miVariable3.5 mphMostly Cloudy
10:50 PM66.2 °F60.8 °F83 %29.98 in6.2 miVariable3.5 mphMostly Cloudy
11:20 PM66.2 °F60.8 °F83 %29.98 in6.2 miVariable3.5 mphMostly Cloudy
11:50 PM64.4 °F60.8 °F88 %29.98 in6.2 miVariable3.5 mphMostly Cloudy
Hourly data recorded from EGKK, located miles away from London, England







STORIES FROM OUR PARTNERS